Savannah, GA

11:24 PM EDT on June 28, 2017 (GMT -0400)
Savannah International

Weather History for KSAV - September, 2013

Change the Weather History Date:

Monday, September 9, 2013

  Actual Average Record
Temperature  
Mean Temperature 81 °F 79 °F  
Max Temperature 90 °F 88 °F 100 °F (1925)
Min Temperature 72 °F 70 °F 58 °F (1956)
Degree Days  
Heating Degree Days 0 0  
Month to date heating degree days 0 0  
Since 1 July heating degree days 0 0  
Cooling Degree Days 16 14  
Month to date cooling degree days 153 129  
Year to date cooling degree days 2002 2036  
Growing Degree Days 31 (Base 50)    
Moisture  
Dew Point 69 °F    
Average Humidity 71    
Maximum Humidity 90    
Minimum Humidity 52    
Precipitation  
Precipitation 0.00 in 0.16 in 4.20 in (1893)
Month to date precipitation 0.53 1.58  
Year to date precipitation 47.70 35.95  
Sea Level Pressure  
Sea Level Pressure 30.05 in    
Wind  
Wind Speed 5 mph (ESE)    
Max Wind Speed 15 mph    
Max Gust Speed 20 mph    
Visibility 10 miles    
Events      
T = Trace of Precipitation, MM = Missing Value Source: NWS Daily Summary

Daily Weather History Graph

Daily Weather History Graph

Search for Another Location

Airport or City:

Trip Planner

Search our weather history database for the weather conditions in past years. The results will help you decide how hot, cold, wet, or windy it might be!

Date:

Astronomy

Sep. 09, 2013 Rise Set
Actual Time 7:05 AM EDT 7:38 PM EDT
Civil Twilight 6:40 AM EDT 8:02 PM EDT
Nautical Twilight 6:11 AM EDT 8:31 PM EDT
Astronomical Twilight 5:41 AM EDT 9:01 PM EDT
Moon 11:07 AM EDT (9/9) 10:12 PM EDT (9/9)
Length of Visible Light 13h 22m
Length of Day
12h 33m
Waxing Crescent, 19% of the Moon is Illuminated
Sep 9
Waxing Crescent
Sep 12
First Quarter
Sep 19
Full
Sep 26
Last Quarter
Oct 4
New

Hourly Weather History & Observations

Time (EDT) Temp. Heat Index Dew Point Humidity Pressure Visibility Wind Dir Wind Speed Gust Speed Precip Events Conditions
12:53 AM 75.0 °F - 69.1 °F 82% 30.00 in 10.0 mi Calm Calm - N/A   Partly Cloudy
1:53 AM 73.9 °F - 70.0 °F 87% 30.00 in 10.0 mi Calm Calm - N/A   Clear
2:53 AM 73.9 °F - 69.1 °F 85% 29.99 in 10.0 mi SSW 3.5 mph - N/A   Clear
3:53 AM 73.0 °F - 69.1 °F 87% 29.99 in 8.0 mi Calm Calm - N/A   Clear
4:53 AM 73.0 °F - 69.1 °F 87% 30.00 in 8.0 mi Calm Calm - N/A   Clear
5:53 AM 73.0 °F - 69.1 °F 87% 30.01 in 9.0 mi Calm Calm - N/A   Clear
6:53 AM 72.0 °F - 68.0 °F 87% 30.02 in 9.0 mi Calm Calm - N/A   Partly Cloudy
7:53 AM 73.9 °F - 69.1 °F 85% 30.03 in 7.0 mi Calm Calm - N/A   Clear
8:53 AM 77.0 °F - 70.0 °F 79% 30.05 in 7.0 mi Calm Calm - N/A   Partly Cloudy
9:53 AM 81.0 °F 84.4 °F 70.0 °F 69% 30.06 in 10.0 mi Calm Calm - N/A   Clear
10:53 AM 84.0 °F 87.8 °F 69.1 °F 61% 30.07 in 10.0 mi ESE 4.6 mph - N/A   Clear
11:53 AM 87.1 °F 91.3 °F 69.1 °F 55% 30.08 in 10.0 mi ENE 9.2 mph - N/A   Scattered Clouds
12:53 PM 88.0 °F 92.1 °F 69.1 °F 53% 30.08 in 10.0 mi ESE 10.4 mph - N/A   Scattered Clouds
1:53 PM 88.0 °F 91.4 °F 68.0 °F 51% 30.07 in 10.0 mi SE 5.8 mph - N/A   Mostly Cloudy
2:53 PM 86.0 °F 90.7 °F 70.0 °F 59% 30.07 in 10.0 mi ESE 9.2 mph - N/A   Mostly Cloudy
3:53 PM 89.1 °F 94.1 °F 70.0 °F 53% 30.06 in 10.0 mi ESE 11.5 mph - N/A   Mostly Cloudy
4:53 PM 87.1 °F 91.3 °F 69.1 °F 55% 30.06 in 10.0 mi East 13.8 mph - N/A   Scattered Clouds
5:53 PM 84.9 °F 88.8 °F 69.1 °F 59% 30.06 in 10.0 mi East 13.8 mph - N/A   Scattered Clouds
6:53 PM 84.0 °F 87.0 °F 68.0 °F 58% 30.06 in 10.0 mi ESE 10.4 mph - N/A   Scattered Clouds
7:53 PM 81.0 °F 83.8 °F 68.0 °F 65% 30.07 in 10.0 mi ESE 11.5 mph - N/A   Partly Cloudy
8:53 PM 80.1 °F 82.7 °F 68.0 °F 67% 30.09 in 10.0 mi ESE 6.9 mph - N/A   Partly Cloudy
9:53 PM 78.1 °F - 69.1 °F 74% 30.10 in 10.0 mi ENE 3.5 mph - N/A   Clear
10:53 PM 77.0 °F - 69.1 °F 76% 30.12 in 10.0 mi ENE 3.5 mph - N/A   Clear
11:53 PM 73.0 °F - 69.1 °F 87% 30.13 in 10.0 mi NNE 3.5 mph - N/A   Partly Cloudy